TELKOM 4 (MERAH PUTIH)  
1 43587U 18064A   19261.83677137 -.00000347  00000-0  00000+0 0  9991
2 43587   0.0116 233.3936 0001615 319.0236 214.2942  1.00273423  4160
FALCON 9 R/B            
1 43588U 18064B   19259.96721713  .00353681 -33071-6  67173-3 0  9993
2 43588  26.9383 154.2534 4221011 177.8209 184.9378  7.22858988 19928